ISARA

Last updated on Sun Feb 20 2022 00:03:19 GMT+0000 (Coordinated Universal Time)

1 43050U 17071P 22049.68329955 .10127310 12389-4 84600-3 0 9995 2 43050 51.6069 226.6971 0007833 281.4911 78.5235 16.38724404237833

Satellite not in orbit